Naples, NY (14512)

1:15 PM EDT on August 30, 2016 (GMT -0400)
Canandaigua Lake | | Change Station

Elev 695 ft 42.71 °N, 77.34 °W | Updated 27 seconds ago

Clear
Clear
79.2 °F
Feels Like 81 °F
N
2.0
Wind Variable Wind from SSE
Gusts 3.1 mph

Today
High -- | Low -- °F
--% Chance of Precip.
Yesterday
High -- | Low -- °F
Precip. -- in
Pressure 30.16 in
Visibility 10.0 miles
Clouds Clear
Heat Index 81 °F
Dew Point 62 °F
Humidity 56%
Rainfall Not available.
Snow Depth Not available.
6:32 AM 7:46 PM
Waning Crescent, 3% visible
METAR KDSV 301654Z AUTO 11004KT 10SM CLR 27/15 A3014 RMK AO2 SLP213 T02670150
Pressure 30.16 in
Visibility 10.0 miles
Clouds Clear
Heat Index 81 °F
Dew Point 62 °F
Humidity 56%
Rainfall Not available.
Snow Depth Not available.
6:32 AM 7:46 PM
Waning Crescent, 3% visible
METAR KDSV 301654Z AUTO 11004KT 10SM CLR 27/15 A3014 RMK AO2 SLP213 T02670150

10-Day Weather Forecast

Almanac

Astronomy

Aug. 30, 2016 Rise Set
Actual Time
Civil Twilight
Nautical Twilight
Astronomical Twilight
Moon
Length of Visible Light
Length of Day
Tomorrow will be .
, % of the Moon is Illuminated

Today's Extremes

State Highs State Lows

Community

WunderPhotos

Upload Photos

1,935,848 photos uploaded!

WunderBlog® & News

Nearby

Air Quality

  Air Quality AQ Index Pollutant
Not available.

Snow Depth

Station Depth Elevation

Earthquake Activity

City Distance Mag. Time & Date
Minimum magnitude displayed is 2.5.

Coastal Water Temperatures

Place Temperature

Stations

Nearby Weather Stations

Station Location Temp. Windchill Dew Point Humidity Wind Precip. Elev Updated Type
                   

Watches & Warnings

There are currently no watches in effect.